CW9561 Weather Reports


time (UTC)temp
C
wind
direction
speed
KPH
gust
KPH
rain 1hr
cm
rain 24hr
cm
rain mn
cm
humidity
%
barometer
mb
20260503200030 13 227 0.0 0.0 0.00 0.00 0.00 30 1018.5
20260503195026 13 289 1.6 0.0 0.00 0.00 0.00 31 1018.6
20260503194022 13 257 1.6 0.0 0.00 0.00 0.00 32 1018.6
20260503193036 13 321 1.6 0.0 0.00 0.00 0.00 31 1018.7
20260503192030 12 225 1.6 0.0 0.00 0.00 0.00 34 1018.8
20260503191022 12 331 1.6 0.0 0.00 0.00 0.00 33 1019.2
20260503185034 12 233 0.0 0.0 0.00 0.00 0.00 35 1019.6
20260503184025 12 60 0.0 0.0 0.00 0.00 0.00 33 1019.3
20260503183022 12 196 3.2 0.0 0.00 0.00 0.00 33 1019.6
20260503182036 13 280 1.6 0.0 0.00 0.00 0.00 31 1020.0
20260503181034 13 260 1.6 0.0 0.00 0.00 0.00 30 1019.9
20260503180030 13 242 4.8 0.0 0.00 0.00 0.00 33 1019.8
20260503175022 13 289 3.2 0.0 0.00 0.00 0.00 31 1020.0
20260503174040 13 270 1.6 0.0 0.00 0.00 0.00 31 1020.4
20260503173031 13 209 1.6 0.0 0.00 0.00 0.00 29 1020.5
20260503171022 13 344 1.6 0.0 0.00 0.00 0.00 32 1020.8
20260503131025 5 173 0.0 0.0 0.00 0.00 0.00 57 1021.7
20260503072031 3 296 4.8 0.0 0.00 0.00 0.00 50 1022.4
20260503071022 3 296 4.8 0.0 0.00 0.00 0.00 49 1022.5
20260503054026 3 338 0.0 0.0 0.00 0.00 0.03 49 1022.6
20260503053021 3 338 0.0 0.0 0.00 0.00 0.03 49 1022.5
20260503051031 3 338 0.0 0.0 0.00 0.00 0.03 51 1022.6
20260503050027 4 338 0.0 0.0 0.00 0.00 0.03 49 1022.7
20260503044037 5 338 0.0 0.0 0.00 0.00 0.03 47 1022.9
20260503043030 5 338 0.0 0.0 0.00 0.00 0.03 47 1023.0
20260503040022 5 337 0.0 0.0 0.00 0.00 0.03 47 1022.3
20260503034034 5 337 0.0 0.0 0.00 0.00 0.03 49 1022.0
20260503033025 5 338 0.0 0.0 0.00 0.00 0.03 49 1021.9
20260503031039 5 338 0.0 0.0 0.00 0.00 0.03 48 1021.7
20260503030034 5 337 0.0 0.0 0.00 0.00 0.03 48 1021.6
20260503025028 6 337 0.0 0.0 0.00 0.00 0.03 47 1021.7
20260503024042 6 338 0.0 0.0 0.00 0.00 0.03 48 1021.6
20260503023036 6 338 0.0 0.0 0.00 0.00 0.03 46 1021.4
20260503021030 8 337 0.0 0.0 0.00 0.00 0.03 44 1021.2
20260503020029 8 337 0.0 0.0 0.00 0.00 0.03 42 1021.1
20260503015023 9 338 0.0 0.0 0.00 0.00 0.03 41 1021.1
20260503012033 11 339 0.0 0.0 0.00 0.00 0.03 38 1021.1
20260503011029 11 355 1.6 0.0 0.00 0.00 0.03 36 1021.0
20260503005038 12 314 4.8 0.0 0.00 0.00 0.03 34 1020.6
20260503004030 12 348 1.6 0.0 0.00 0.00 0.03 35 1020.9
20260503003027 13 340 4.8 0.0 0.00 0.00 0.03 35 1020.9
20260503001038 13 12 4.8 0.0 0.00 0.00 0.03 32 1021.0
20260503000030 13 18 3.2 0.0 0.00 0.00 0.03 31 1021.1
20260502235025 13 29 1.6 0.0 0.00 0.00 0.03 28 1021.3
20260502233040 12 54 1.6 0.0 0.00 0.00 0.03 26 1021.4
20260502232035 13 80 1.6 0.0 0.00 0.00 0.03 25 1021.5
20260502231028 13 34 0.0 0.0 0.00 0.00 0.03 27 1020.9
20260502230041 12 34 0.0 0.0 0.00 0.00 0.03 28 1020.9
20260502225037 12 34 0.0 0.0 0.00 0.00 0.03 27 1021.1
20260502224029 12 35 0.0 0.0 0.00 0.00 0.03 26 1021.3
20260502221032 12 51 0.0 0.0 0.00 0.00 0.03 27 1021.4
20260502220030 12 59 1.6 0.0 0.00 0.00 0.03 29 1021.5
20260502215042 12 38 3.2 0.0 0.00 0.00 0.03 26 1021.8
20260502214034 12 55 3.2 0.0 0.00 0.00 0.03 25 1021.8
20260502213028 13 88 8.0 0.0 0.00 0.00 0.03 25 1021.9
20260502212039 13 50 8.0 0.0 0.00 0.00 0.03 27 1022.1
20260502211035 13 82 8.0 0.0 0.00 0.00 0.03 26 1022.4
20260502210029 13 126 6.4 0.0 0.00 0.00 0.00 28 1022.4
20260502205026 12 94 12.9 0.0 0.00 0.00 0.00 28 1022.6
20260502204039 12 123 6.4 0.0 0.00 0.00 0.00 26 1022.7
20260502203029 12 90 8.0 0.0 0.00 0.00 0.00 31 1022.9
20260502202029 12 98 3.2 0.0 0.00 0.00 0.00 30 1023.1
20260502201041 12 127 11.3 0.0 0.00 0.00 0.00 29 1023.2